Theta_e
314 316 317 315 313 312 313 313 314 313 315 319 318 319 318 318 318 319 320 322 324 325 325 325 326 326 325 325 325 327 327 326 324 322 321 319 316 319 317 312 311 311 310 309
317 317 314 315 316 315 316 316 317 317 316 319 319 320 319 317 317 317 319 320 322 323 324 325 326 327 327 325 322 321 320 319 318 319 318 318 316 311 311 311 310 310 309 308
317 316 315 317 317 319 317 317 316 319 318 318 320 321 321 319 318 318 318 319 321 323 324 323 322 318 317 316 315 313 313 315 313 312 312 312 312 311 311 311 310 309 308 306
318 316 316 317 318 317 320 315 318 319 320 322 316 322 321 321 320 319 318 317 319 320 320 318 315 313 312 312 312 312 312 313 313 313 312 313 312 312 311 310 308 306 305 304
318 317 317 318 317 317 319 316 318 316 317 318 319 322 319 320 322 321 318 317 316 317 316 314 314 313 313 313 313 313 313 313 313 312 312 312 311 310 308 305 304 304 304 303
316 316 316 317 315 316 316 318 318 317 318 322 318 319 320 321 322 321 318 317 315 315 314 314 313 313 314 314 313 313 313 313 313 312 311 310 309 306 305 303 303 303 302 300
317 316 315 316 319 316 318 320 324 324 325 323 317 319 321 318 317 320 318 317 315 315 314 314 314 313 314 314 313 313 313 313 311 310 307 306 305 304 301 300 299 298 296 295
318 320 316 315 317 319 317 320 325 324 324 322 317 323 321 315 315 317 317 317 316 315 314 314 314 314 313 313 313 313 312 309 307 305 302 300 300 298 296 295 294 293 292 291
319 318 314 314 315 317 316 318 316 318 313 319 319 318 317 314 315 316 315 315 315 315 314 314 313 312 312 312 311 309 308 305 302 301 300 298 297 295 294 293 292 291 290 290
317 318 314 315 315 315 317 314 318 316 319 318 317 318 321 318 317 316 315 315 315 315 315 313 311 310 309 308 307 307 305 302 301 300 298 297 295 294 293 293 291 290 290 290
313 317 317 315 317 318 317 317 314 314 314 316 316 317 315 317 317 317 316 314 314 314 313 310 308 308 307 306 305 305 303 303 300 298 297 296 295 294 294 293 291 290 290 290
314 316 319 316 314 314 315 315 314 317 314 311 314 317 311 312 313 315 313 313 313 313 310 308 308 307 305 304 304 304 304 301 298 298 297 296 295 295 294 292 290 290 290 290
314 316 319 318 315 314 317 315 311 311 312 315 323 316 311 311 311 312 313 311 311 311 307 307 307 306 304 302 304 304 302 299 298 297 296 295 295 294 293 291 290 290 290 290
313 312 316 319 315 314 315 315 312 314 316 314 317 315 313 314 312 310 310 310 309 308 307 308 306 305 303 303 304 302 299 298 297 296 295 294 294 293 293 291 290 290 290 290
313 316 313 312 312 312 312 314 313 313 313 318 314 312 312 313 313 310 308 308 308 307 307 307 306 304 302 305 302 299 298 297 296 295 295 294 293 293 292 290 290 290 290 291
309 314 310 314 311 311 313 311 312 313 312 312 312 314 311 310 309 309 308 307 307 308 309 308 305 303 304 301 299 298 297 296 295 295 295 294 293 293 291 290 290 290 290 291
309 309 310 311 307 307 312 312 312 311 311 314 315 315 311 311 310 310 309 308 308 309 310 307 305 303 300 300 299 297 296 295 295 295 294 293 293 291 291 291 290 290 290 291
306 305 304 312 305 313 312 309 309 311 310 310 311 311 311 311 310 310 310 310 310 310 309 307 304 301 300 299 298 296 295 295 295 294 293 292 291 291 291 291 290 289 290 290
305 306 306 314 311 308 309 308 312 314 314 312 312 311 309 309 310 310 311 311 311 311 309 306 302 300 300 299 297 296 295 295 294 291 290 289 290 290 292 291 290 289 290 290
305 302 311 306 311 311 310 306 312 311 316 311 312 310 308 309 315 314 312 312 311 310 307 303 301 300 299 297 296 296 295 292 290 289 289 289 289 289 291 291 290 289 289 289
310 306 310 302 312 310 306 309 310 315 315 310 312 311 308 311 313 311 312 311 311 308 304 302 301 298 297 296 296 293 290 290 289 289 289 289 289 289 289 290 290 289 288 288
313 311 310 303 308 313 305 311 315 314 311 310 312 313 312 312 311 311 310 310 309 306 303 304 299 299 296 295 292 290 290 289 289 289 289 289 289 289 290 290 290 288 287 287
313 311 312 309 312 307 307 311 312 311 311 311 311 312 312 311 310 309 308 307 305 304 301 297 301 299 294 291 290 290 289 289 289 289 289 289 289 289 290 290 290 287 287 287
309 305 309 309 309 307 308 310 310 310 311 311 311 311 312 312 310 308 306 305 301 298 297 301 301 294 291 290 290 289 289 289 289 289 289 289 289 289 289 289 289 288 287 287
309 307 309 309 309 310 311 311 311 312 312 313 314 313 312 312 310 308 306 301 299 298 300 299 293 291 290 290 289 289 289 289 289 289 289 288 289 289 289 289 289 288 287 287
308 310 312 314 311 310 311 311 313 313 313 313 313 313 312 311 309 306 300 296 299 299 298 292 291 290 290 290 289 290 290 289 289 288 287 288 287 288 287 288 288 288 287 287
Wind_Speed
1 3 4 3 2 3 5 4 6 3 1 7 6 5 7 7 8 7 8 10 10 9 8 6 6 5 4 4 3 5 4 3 3 6 9 10 8 5 10 9 9 10 12 14
5 4 1 5 4 5 4 6 4 5 2 5 6 9 6 7 4 3 9 11 13 15 12 10 10 12 12 10 12 16 15 14 13 12 8 5 6 4 5 8 11 12 13 14
5 2 2 4 3 5 3 6 4 5 6 6 6 4 3 5 7 8 10 15 18 22 25 24 22 22 23 23 20 19 18 16 13 10 6 2 1 4 8 11 12 14 15 15
5 2 3 4 3 2 4 3 9 13 2 3 2 3 2 3 4 6 9 11 16 21 22 23 24 25 23 21 19 18 17 13 9 5 1 2 5 7 10 12 13 12 14 18
1 2 2 5 1 1 3 8 10 3 4 4 1 1 3 6 8 9 11 10 16 22 23 22 20 19 20 20 17 14 10 7 4 1 3 5 6 7 7 8 10 14 19 22
3 3 2 3 2 4 10 6 6 3 2 1 2 3 5 9 15 14 13 12 17 21 21 21 20 19 18 16 14 11 8 6 3 2 3 6 6 6 8 11 15 20 24 27
4 2 2 2 5 3 4 4 2 1 1 3 1 3 6 13 11 19 21 20 22 22 21 18 17 16 15 15 12 9 6 2 2 5 9 10 11 12 15 19 24 26 29 31
3 1 3 4 2 4 2 4 4 5 3 2 1 5 3 3 15 22 24 21 22 22 20 16 14 14 15 14 12 9 4 2 5 8 11 12 10 14 18 21 24 27 30 31
3 1 2 4 1 0 3 2 2 6 2 1 2 3 5 1 8 14 19 21 22 23 20 17 16 16 15 13 10 5 6 7 7 9 9 12 17 20 22 25 27 29 29 28
5 3 1 1 2 7 1 6 3 2 3 3 2 5 6 5 12 12 16 21 22 22 20 20 19 16 13 11 8 6 6 8 10 10 13 18 21 24 25 26 28 29 29 26
3 3 2 1 1 4 3 2 6 4 1 2 2 4 4 8 14 16 22 21 23 23 24 23 18 15 12 9 5 6 9 13 10 11 16 19 23 24 24 27 29 28 26 21
1 4 3 1 1 1 1 3 4 3 4 1 0 5 0 6 9 13 14 19 22 24 25 21 17 14 11 6 3 7 10 10 10 12 17 19 22 22 25 28 29 27 25 17
5 1 3 2 2 1 2 3 4 5 2 5 3 3 1 3 5 13 18 20 23 26 24 21 17 14 10 5 3 8 10 8 10 14 16 18 18 21 25 29 29 28 26 22
3 2 4 7 3 1 4 4 4 3 3 4 6 4 4 5 6 10 15 20 23 28 24 20 17 13 10 5 9 15 5 7 11 15 18 18 18 21 27 29 30 29 26 21
2 4 2 1 1 1 2 5 8 7 4 6 4 8 6 9 12 15 14 20 25 27 24 20 16 14 12 8 12 5 6 10 14 18 19 20 20 23 28 29 30 27 22 17
2 4 2 4 1 3 3 5 7 6 3 9 5 12 9 3 9 15 20 25 26 27 23 19 17 14 13 8 8 8 9 12 17 19 22 22 21 25 29 28 29 24 19 14
2 5 3 3 3 3 5 9 11 6 5 7 9 8 6 6 13 21 23 27 28 27 23 20 17 14 9 7 10 10 12 16 19 22 23 22 23 28 26 27 26 22 18 15
5 4 2 2 1 2 4 2 2 10 6 13 3 4 7 4 10 15 24 30 30 27 23 19 15 12 9 11 13 13 16 18 22 23 22 23 26 25 25 27 23 19 17 17
4 4 3 3 3 5 4 4 6 7 6 12 12 5 4 5 4 10 21 28 27 25 19 14 13 12 12 13 14 15 16 20 21 23 25 25 24 24 23 26 21 18 14 15
4 5 3 3 2 5 5 2 4 3 4 2 12 8 11 12 4 6 15 26 26 22 18 16 15 13 13 13 12 13 17 20 22 22 22 23 24 24 24 25 20 16 16 17
2 3 3 2 3 7 6 1 4 3 4 3 14 16 19 8 12 7 8 17 26 22 17 16 11 12 10 10 12 16 19 19 20 21 23 24 24 25 25 23 17 16 16 17
5 5 3 3 1 6 6 4 5 3 3 6 13 17 25 19 16 13 10 12 21 22 18 14 14 7 11 11 14 16 17 19 20 22 24 25 24 24 19 16 15 14 15 14
3 4 3 7 4 4 12 9 11 8 7 8 11 16 20 23 22 17 13 16 21 20 16 14 2 11 10 12 14 16 17 19 22 24 26 24 23 19 14 14 14 13 14 12
3 5 3 1 2 9 16 17 23 25 26 24 22 20 19 24 24 19 17 20 20 16 15 7 11 9 9 11 13 16 18 21 24 26 24 23 22 18 15 14 14 15 11 9
3 8 4 4 11 15 12 12 11 12 16 18 16 17 18 19 22 24 22 23 22 19 8 11 10 9 9 11 13 15 19 22 22 21 22 21 17 18 17 16 15 13 11 12
10 6 4 5 15 7 13 12 13 13 14 16 17 17 16 14 17 21 22 21 15 8 10 10 9 8 10 12 14 17 20 21 18 19 19 17 19 17 14 16 14 15 14 15
Wind_Direction
179 144 134 138 82 134 124 105 104 49 58 75 71 72 26 43 85 114 144 158 156 172 180 186 207 222 224 209 228 233 212 220 103 97 106 148 163 239 289 287 288 294 299 306
46 85 304 75 66 84 98 131 103 92 86 92 112 64 50 48 65 141 151 149 147 145 144 132 129 122 111 106 107 113 114 103 89 81 101 164 218 235 279 295 296 302 305 309
131 139 88 81 92 122 80 113 159 135 109 85 129 76 39 53 91 119 126 129 129 128 124 121 118 117 114 115 109 105 99 99 106 119 131 117 336 308 304 300 304 308 309 310
79 29 129 110 103 207 89 104 134 132 114 150 311 196 202 153 137 147 143 139 142 137 132 132 129 123 118 114 116 118 120 130 139 138 113 345 328 313 300 300 310 312 310 313
218 99 104 76 295 124 116 125 125 113 108 151 141 188 134 172 202 194 186 165 151 144 141 138 136 135 132 131 134 138 133 141 144 186 270 305 312 309 317 335 330 309 310 312
84 47 48 120 56 67 143 94 59 61 82 237 164 222 187 194 204 189 189 180 164 156 153 151 152 151 148 145 155 151 160 181 193 269 305 329 341 330 317 305 301 305 308 311
17 345 305 103 102 93 77 98 93 185 195 231 324 204 260 212 189 184 185 184 176 171 172 168 164 163 160 164 169 170 174 155 20 344 346 351 345 335 326 320 315 312 312 313
145 324 14 347 73 145 105 164 163 198 199 209 131 232 231 243 202 185 186 181 181 184 185 178 177 178 173 170 166 158 140 51 2 348 342 334 326 329 329 325 321 319 317 315
138 156 349 37 80 158 159 141 114 106 25 234 235 273 265 93 172 175 170 180 185 188 190 189 180 170 162 155 146 115 40 18 2 356 355 344 343 337 337 335 331 327 325 323
188 112 48 87 101 54 118 136 120 43 154 253 261 272 248 203 190 184 182 186 188 193 193 187 178 168 158 148 122 77 39 18 1 347 345 345 343 340 336 335 334 334 332 328
126 104 257 184 19 164 143 126 66 101 67 177 292 258 217 232 200 197 199 192 190 189 185 181 174 167 162 147 101 35 16 341 336 341 340 343 342 340 337 337 336 334 332 325
153 124 129 154 296 292 113 137 138 128 185 73 219 273 222 272 237 208 195 193 191 189 183 179 175 174 169 166 70 359 329 326 333 335 335 333 335 336 336 338 337 335 331 319
186 50 90 20 350 351 208 136 108 106 106 188 164 259 350 297 240 214 187 188 187 184 180 178 181 185 186 160 6 328 313 313 322 321 323 325 326 328 334 336 335 334 330 318
105 110 164 188 189 159 173 173 169 139 143 171 232 261 252 245 222 196 187 187 181 181 181 186 193 198 198 191 327 304 298 297 301 312 315 317 317 323 331 332 331 330 328 320
102 148 125 104 16 249 219 180 186 203 176 191 225 216 242 230 216 203 188 177 176 182 188 196 205 208 202 273 291 251 271 286 300 304 311 314 311 319 325 325 329 328 327 323
12 159 154 186 344 14 275 236 205 229 225 252 248 268 218 234 187 183 189 183 185 190 197 206 212 212 225 262 249 249 280 290 292 303 310 309 310 315 318 323 328 323 321 307
100 140 132 241 2 9 318 224 199 191 205 201 213 239 175 198 207 202 193 195 196 198 205 213 219 220 231 248 248 260 279 285 293 301 307 307 305 309 315 322 325 320 314 305
127 98 65 164 26 251 243 174 186 218 231 216 254 208 202 234 225 224 216 208 206 208 212 219 218 217 236 244 240 263 276 287 294 303 308 303 305 308 311 318 322 317 315 311
47 121 100 159 208 304 286 200 186 184 273 211 222 191 176 164 182 245 219 218 218 215 221 223 212 218 237 239 247 265 278 290 302 308 305 303 304 305 303 312 315 314 307 316
58 65 109 134 188 233 247 261 186 156 283 239 202 165 167 152 175 243 226 220 217 217 214 210 210 226 243 238 259 279 292 302 307 309 308 307 306 305 298 302 305 309 307 306
41 15 169 153 231 283 253 276 146 109 257 222 196 195 175 195 215 235 215 216 220 213 206 200 221 237 236 251 280 292 303 310 310 311 311 312 310 306 301 297 294 300 301 302
179 156 185 110 187 272 184 135 172 233 253 245 204 211 209 235 239 230 217 198 199 198 194 206 205 230 250 276 292 305 313 310 312 316 317 314 310 313 309 297 290 295 300 298
242 198 176 196 221 235 204 234 234 264 276 285 257 251 244 242 236 224 221 187 184 190 184 171 192 253 265 290 308 313 313 311 316 317 315 312 312 316 305 296 290 291 298 289
235 177 212 122 229 239 254 258 264 274 276 282 286 283 273 259 247 219 195 185 179 168 166 196 244 252 281 303 310 316 317 317 317 312 310 311 309 306 295 288 294 285 286 273
198 156 178 261 278 279 283 288 308 295 287 289 294 288 277 262 245 228 200 182 172 167 172 235 244 271 298 310 317 317 319 318 312 310 314 319 316 308 293 283 286 269 266 280
189 185 176 229 269 247 281 307 313 307 307 305 296 287 275 254 228 199 178 159 156 160 204 235 267 294 308 315 319 321 321 315 312 318 325 324 320 318 310 297 282 262 258 279